METAR AND TAF INFORMATION
METAR FOR KPHL
KPHL 230354Z 00000KT 10SM BKN023 OVC035 23/20 A2997 RMK AO2 SLP149 T02330200
KPHL 230254Z 03003KT 10SM OVC028 23/19 A2999 RMK AO2 SLP154 T02330194 58002
KPHL 230252Z 00000KT 10SM OVC028 23/19 A2999 RMK AO2
KPHL 230154Z 08003KT 10SM BKN035 OVC065 24/19 A2999 RMK AO2 SLP156 T02390194
KPHL 230054Z 15003KT 10SM FEW025 BKN045 OVC085 23/21 A2999 RMK AO2 SLP156 T02330206
KPHL 230307Z 2303/2406 VRB03KT P6SM VCSH OVC030
FM230500 16004KT P6SM VCSH OVC025
TEMPO 2305/2309 5SM -SHRA BR OVC015
FM230900 VRB03KT 6SM BR VCSH BKN009
FM231300 24005KT P6SM BKN015
FM231600 24007KT P6SM VCSH BKN120
FM240000 18005KT P6SM -SHRA VCTS BKN050CB

 AIRPORT MAP

 RUNWAY INFORMATION
Runway 08 Runway length 5000 ft Runway width 150 ft
Runway elevation 9 ft Runway displaced threshold 0 ft Runway heading 76
Runway 26 Runway length 5000 ft Runway width 150 ft
Runway elevation 36 ft Runway displaced threshold 0 ft Runway heading 256
Runway 09L Runway length 9500 ft Runway width 150 ft
Runway elevation 13 ft Runway displaced threshold 0 ft Runway heading 76
Runway 27R Runway length 9500 ft Runway width 150 ft
Runway elevation 11 ft Runway displaced threshold 0 ft Runway heading 256
Runway 09R Runway length 10506 ft Runway width 200 ft
Runway elevation 20 ft Runway displaced threshold 0 ft Runway heading 76
Runway 27L Runway length 10506 ft Runway width 200 ft
Runway elevation 9 ft Runway displaced threshold 0 ft Runway heading 256
Runway 17 Runway length 5460 ft Runway width 150 ft
Runway elevation 9 ft Runway displaced threshold 0 ft Runway heading 159
Runway 35 Runway length 5460 ft Runway width 150 ft
Runway elevation 9 ft Runway displaced threshold 0 ft Runway heading 339

 AIRPORT FREQUENCIES
Type APP Name APP Frequency 123.8 MHZ
Type ARR Name PRM Frequency 120.425 MHZ
Type ATIS Name ATIS Frequency 133.4 MHZ
Type CLD Name CLNC DEL Frequency 118.85 MHZ
Type DEP Name DEP Frequency 119.75 MHZ
Type GND Name GND Frequency 121.9 MHZ
Type TWR Name TWR Frequency 118.5 MHZ
Type UNIC Name UNICOM Frequency 122.95 MHZ

 AIRPORT NEAR NAVIGATION AIDS
Type NDB Name Speez Frequency 222 KHZ

-